This is the latest recevied weather packets stored in our database for station/object KG5CK-1. If no packets are shown the sender has not sent any weather packets the latest 1 day(s).
| Time | Temp. | Humidity | Pressure | Rain* | Wind** | Luminosity | Snow |
|---|---|---|---|---|---|---|---|
| 1778075883 | 12.22° C | 86% | 1009.7 hPa | 0 mm | 0.89 m/s, 7° | - | - |
| 1778075823 | 12.22° C | 86% | 1009.7 hPa | 0 mm | 0.89 m/s, 7° | - | - |
| 1778075643 | 12.22° C | 86% | 1009.5 hPa | 0 mm | 0.45 m/s, 66° | - | - |
| 1778075583 | 12.22° C | 86% | 1009.5 hPa | 0 mm | 0.45 m/s, 66° | - | - |
| 1778075343 | 12.22° C | 86% | 1009.6 hPa | 0 mm | 0.89 m/s, 33° | - | - |
| 1778075283 | 12.22° C | 86% | 1009.6 hPa | 0 mm | 0.89 m/s, 33° | - | - |
| 1778075163 | 12.22° C | 86% | 1009.6 hPa | 0 mm | 0.89 m/s, 33° | - | - |
| 1778075043 | 12.22° C | 87% | 1009.5 hPa | 0 mm | 0.89 m/s, 16° | - | - |
| 1778074983 | 12.22° C | 87% | 1009.5 hPa | 0 mm | 0.89 m/s, 16° | - | - |
| 1778074923 | 12.22° C | 87% | 1009.5 hPa | 0 mm | 0.89 m/s, 16° | - | - |
| 1778074683 | 12.22° C | 87% | 1009.7 hPa | 0 mm | 1.79 m/s, 22° | - | - |
| 1778074503 | 12.22° C | 88% | 1009.8 hPa | 0 mm | 1.79 m/s, 42° | - | - |
| 1778074443 | 12.22° C | 88% | 1009.8 hPa | 0 mm | 1.79 m/s, 42° | - | - |
| 1778074383 | 12.22° C | 88% | 1009.8 hPa | 0 mm | 1.79 m/s, 42° | - | - |
| 1778074023 | 12.22° C | 88% | 1009.5 hPa | 0 mm | 0.89 m/s, 54° | - | - |
| 1778073963 | 12.22° C | 88% | 1009.5 hPa | 0 mm | 0.89 m/s, 54° | - | - |
| 1778073843 | 12.22° C | 88% | 1009.2 hPa | 0 mm | 1.34 m/s, 37° | - | - |
| 1778073783 | 12.22° C | 88% | 1009.2 hPa | 0 mm | 1.34 m/s, 37° | - | - |
| 1778073243 | 11.67° C | 88% | 1009.3 hPa | 0 mm | 1.34 m/s, 43° | - | - |
| 1778072883 | 11.67° C | 88% | 1009.5 hPa | 0 mm | 0.89 m/s, 23° | - | - |
| 1778072763 | 11.67° C | 88% | 1009.5 hPa | 0 mm | 0.89 m/s, 23° | - | - |
| 1778072703 | 11.67° C | 88% | 1009.2 hPa | 0 mm | 1.34 m/s, 25° | - | - |
| 1778072463 | 11.67° C | 88% | 1009.2 hPa | 0 mm | 1.34 m/s, 25° | - | - |
| 1778072343 | 11.67° C | 88% | 1009.3 hPa | 0 mm | 1.34 m/s, 14° | - | - |
| 1778072286 | 11.67° C | 88% | 1009.3 hPa | 0 mm | 1.34 m/s, 14° | - | - |
* Rain latest hour (hover to see other rain measurements)
** Current wind speed in m/s (hover to see current wind gust speed)